Location: Shepherdstown, WV
(39.4326°N, 77.8042°W)
Time: 07:25:41
(UTC-04:00)

Tiros 1 despin weight - Pass Details

Date: 29 July 2021
Orbit: 594 x 641 km, 48.2° (Epoch: 16 September)

Event Time Altitude Azimuth Distance (km) Brightness Sun altitude
Rises 22:44:24 0° 288° (WNW) 2,921 ? -21.9°
Reaches altitude 10° 22:47:25 10° 268° (W) 2,001 ? -22.3°
Maximum altitude 22:50:22 17° 228° (SW) 1,581 ? -22.6°
Enters shadow 22:50:43 17° 223° (SW) 1,586 ? -22.7°
